Avalon, CA

7:15 AM PDT on September 27, 2016 (GMT -0700)
Catalina

Weather History for KAVX - December, 2012

Change the Weather History Date:

Monday, December 17, 2012

  Actual Average Record
Temperature  
Mean Temperature 53 °F -  
Max Temperature 55 °F 58 °F 75 °F (2013)
Min Temperature 51 °F 48 °F 39 °F (2008)
Degree Days  
Heating Degree Days 12    
Growing Degree Days 3 (Base 50)    
Moisture  
Dew Point 51 °F    
Average Humidity 95    
Maximum Humidity 100    
Minimum Humidity 80    
Precipitation  
Precipitation 0.18 in - - ()
Sea Level Pressure  
Sea Level Pressure 30.10 in    
Wind  
Wind Speed 7 mph (NE)    
Max Wind Speed 13 mph    
Max Gust Speed -    
Visibility 4 miles    
Events Fog , Rain    
Averages and records for this station are not official NWS values.
T = Trace of Precipitation, MM = Missing Value Source: NWS Daily Summary

Daily Weather History Graph

Daily Weather History Graph

Search for Another Location

Airport or City:

Trip Planner

Search our weather history database for the weather conditions in past years. The results will help you decide how hot, cold, wet, or windy it might be!

Date:

Astronomy

Dec. 17, 2012 Rise Set
Actual Time 6:51 AM PST 4:48 PM PST
Civil Twilight 6:24 AM PST 5:16 PM PST
Nautical Twilight 5:53 AM PST 5:47 PM PST
Astronomical Twilight 5:22 AM PST 6:17 PM PST
Moon 10:15 AM PST (12/17) 10:01 PM PST (12/17)
Length of Visible Light 10h 51m
Length of Day
9h 56m
Waxing Crescent, 26% of the Moon is Illuminated
Dec 17
Waxing Crescent
Dec 19
First Quarter
Dec 28
Full
Jan 4
Last Quarter
Jan 11
New

Hourly Weather History & Observations

Time (PST) Temp. Dew Point Humidity Pressure Visibility Wind Dir Wind Speed Gust Speed Precip Events Conditions
12:51 AM 52.0 °F 52.0 °F 100% 30.13 in 0.2 mi ESE 12.7 mph - 0.01 in Fog , Rain Light Rain
1:51 AM 52.0 °F 52.0 °F 100% 30.14 in 0.2 mi ESE 10.4 mph - 0.04 in Fog , Rain Light Rain
2:51 AM 53.1 °F 52.0 °F 96% 30.15 in 0.2 mi ESE 5.8 mph - 0.02 in Fog , Rain Light Rain
3:51 AM 53.1 °F 52.0 °F 96% 30.13 in 0.2 mi ESE 6.9 mph - 0.03 in Fog , Rain Light Rain
4:51 AM 52.0 °F 52.0 °F 100% 30.13 in 0.2 mi ENE 8.1 mph - 0.06 in Fog , Rain Light Rain
5:19 AM 51.8 °F 51.8 °F 100% 30.13 in 0.2 mi East 8.1 mph - 0.03 in Fog , Rain Light Rain
6:51 AM 52.0 °F 52.0 °F 100% 30.15 in 0.2 mi NE 6.9 mph - N/A Fog Fog
7:51 AM 52.0 °F 51.1 °F 97% 30.15 in 0.2 mi ENE 8.1 mph - 0.02 in Fog , Rain Light Rain
8:51 AM 53.1 °F 52.0 °F 96% 30.16 in 0.2 mi NNE 5.8 mph - 0.00 in Fog Fog
9:51 AM 53.1 °F 52.0 °F 96% 30.17 in 0.2 mi NE 5.8 mph - 0.00 in Fog Fog
10:37 AM 53.6 °F 53.6 °F 100% 30.16 in 1.2 mi NNE 6.9 mph - 0.00 in   Overcast
10:45 AM 53.6 °F 51.8 °F 94% 30.16 in 0.8 mi NE 5.8 mph - 0.00 in   Overcast
10:51 AM 53.1 °F 53.1 °F 100% 30.16 in 0.5 mi NE 4.6 mph - 0.00 in Fog Fog
10:56 AM 53.6 °F 51.8 °F 94% 30.16 in 2.0 mi NE 3.5 mph - N/A   Overcast
11:03 AM 51.8 °F 51.8 °F 100% 30.15 in 0.8 mi NNE 6.9 mph - 0.00 in Rain Light Rain
11:51 AM 53.1 °F 53.1 °F 100% 30.09 in 0.5 mi ENE 6.9 mph - 0.00 in Fog Fog
12:02 PM 53.6 °F 53.6 °F 100% 30.10 in 1.2 mi ENE 4.6 mph - N/A   Overcast
12:11 PM 53.6 °F 53.6 °F 100% 30.10 in 9.0 mi ENE 4.6 mph - N/A   Overcast
12:44 PM 53.6 °F 53.6 °F 100% 30.09 in 10.0 mi Variable 3.5 mph - N/A   Mostly Cloudy
12:51 PM 53.1 °F 52.0 °F 96% 30.09 in 10.0 mi Variable 3.5 mph - N/A   Mostly Cloudy
1:09 PM 55.4 °F 51.8 °F 88% 30.08 in 10.0 mi NE 5.8 mph - N/A   Partly Cloudy
1:51 PM 55.9 °F 50.0 °F 80% 30.05 in 10.0 mi NNE 4.6 mph - N/A   Clear
4:51 PM 52.0 °F 46.9 °F 83% 30.05 in 10.0 mi WNW 3.5 mph - N/A   Mostly Cloudy
5:51 PM 52.0 °F 46.0 °F 80% 30.06 in 10.0 mi WNW 4.6 mph - N/A   Overcast
7:02 PM 51.8 °F 46.4 °F 82% 30.06 in 10.0 mi West 8.1 mph - N/A   Scattered Clouds
7:51 PM 52.0 °F 46.9 °F 83% 30.06 in 10.0 mi West 5.8 mph - N/A   Mostly Cloudy
9:51 PM 52.0 °F 50.0 °F 93% 30.04 in 10.0 mi SW 5.8 mph - N/A   Overcast
10:00 PM 51.8 °F 50.0 °F 94% 30.04 in 10.0 mi WSW 5.8 mph - N/A   Overcast
10:51 PM 51.1 °F 50.0 °F 96% 30.04 in 9.0 mi WSW 8.1 mph - N/A   Overcast
11:12 PM 51.8 °F 50.0 °F 94% 30.04 in 1.8 mi WSW 5.8 mph - N/A   Overcast
11:15 PM 51.8 °F 51.8 °F 100% 30.04 in 0.8 mi WSW 4.6 mph - N/A   Overcast
11:35 PM 51.8 °F 51.8 °F 100% 30.03 in 0.2 mi Calm Calm - N/A Fog Fog
11:51 PM 51.1 °F 50.0 °F 96% 30.01 in 0.5 mi Calm Calm - N/A Fog Fog